| time (UTC) | temp C | wind direction | speed KPH | gust KPH | rain 1hr cm | rain 24hr cm | rain mn cm | humidity % | barometer mb |
| 20260504213949 | 31 | 252 | 1.6 | 1.6 | 0.00 | 0.00 | 0.00 | 59 | 1015.8 |
| 20260504213445 | 31 | 153 | 0.0 | 1.6 | 0.00 | 0.00 | 0.00 | 60 | 1015.6 |
| 20260504212943 | 31 | 173 | 1.6 | 1.6 | 0.00 | 0.00 | 0.00 | 59 | 1015.5 |
| 20260504212438 | 32 | 157 | 3.2 | 3.2 | 0.00 | 0.00 | 0.00 | 54 | 1015.6 |
| 20260504211936 | 33 | 190 | 4.8 | 8.0 | 0.00 | 0.00 | 0.00 | 50 | 1015.5 |
| 20260504211432 | 33 | 138 | 3.2 | 3.2 | 0.00 | 0.00 | 0.00 | 51 | 1015.6 |
| 20260504210930 | 33 | 144 | 6.4 | 9.7 | 0.00 | 0.00 | 0.00 | 50 | 1015.5 |
| 20260504210426 | 33 | 194 | 0.0 | 0.0 | 0.00 | 0.00 | 0.00 | 51 | 1015.6 |
| 20260504205924 | 33 | 141 | 4.8 | 9.7 | 0.00 | 0.00 | 0.00 | 50 | 1015.4 |
| 20260504205421 | 33 | 149 | 8.0 | 9.7 | 0.00 | 0.00 | 0.00 | 51 | 1015.4 |
| 20260504204919 | 33 | 166 | 4.8 | 9.7 | 0.00 | 0.00 | 0.00 | 51 | 1015.3 |
| 20260504204417 | 33 | 176 | 3.2 | 3.2 | 0.00 | 0.00 | 0.00 | 50 | 1015.2 |
| 20260504203916 | 33 | 226 | 6.4 | 8.0 | 0.00 | 0.00 | 0.00 | 50 | 1015.4 |
| 20260504203414 | 33 | 198 | 0.0 | 0.0 | 0.00 | 0.00 | 0.00 | 51 | 1015.4 |
| 20260504202909 | 33 | 217 | 4.8 | 4.8 | 0.00 | 0.00 | 0.00 | 49 | 1015.4 |
| 20260504202406 | 34 | 211 | 4.8 | 4.8 | 0.00 | 0.00 | 0.00 | 48 | 1015.3 |
| 20260504201903 | 33 | 194 | 3.2 | 3.2 | 0.00 | 0.00 | 0.00 | 49 | 1015.0 |
| 20260504201400 | 34 | 147 | 8.0 | 11.3 | 0.00 | 0.00 | 0.00 | 49 | 1015.2 |
| 20260504200857 | 35 | 148 | 4.8 | 8.0 | 0.00 | 0.00 | 0.00 | 47 | 1015.1 |
| 20260504200354 | 34 | 179 | 3.2 | 4.8 | 0.00 | 0.00 | 0.00 | 49 | 1015.0 |
| 20260504195851 | 34 | 155 | 4.8 | 4.8 | 0.00 | 0.00 | 0.00 | 48 | 1014.9 |
| 20260504195346 | 34 | 109 | 4.8 | 8.0 | 0.00 | 0.00 | 0.00 | 48 | 1014.9 |
| 20260504194843 | 34 | 260 | 3.2 | 3.2 | 0.00 | 0.00 | 0.00 | 49 | 1014.8 |
| 20260504194339 | 33 | 143 | 0.0 | 1.6 | 0.00 | 0.00 | 0.00 | 49 | 1015.2 |
| 20260504193835 | 34 | 205 | 3.2 | 3.2 | 0.00 | 0.00 | 0.00 | 47 | 1015.2 |
| 20260504193333 | 35 | 183 | 6.4 | 9.7 | 0.00 | 0.00 | 0.00 | 46 | 1015.2 |
| 20260504192831 | 34 | 186 | 4.8 | 8.0 | 0.00 | 0.00 | 0.00 | 50 | 1014.9 |
| 20260504192329 | 33 | 81 | 1.6 | 3.2 | 0.00 | 0.00 | 0.00 | 60 | 1015.3 |
| 20260504191827 | 33 | 60 | 3.2 | 3.2 | 0.00 | 0.00 | 0.00 | 59 | 1015.3 |
| 20260504191324 | 33 | 5 | 4.8 | 9.7 | 0.00 | 0.00 | 0.00 | 61 | 1015.3 |
| 20260504190820 | 33 | 62 | 6.4 | 9.7 | 0.00 | 0.00 | 0.00 | 63 | 1015.2 |
| 20260504190316 | 33 | 98 | 8.0 | 11.3 | 0.00 | 0.00 | 0.00 | 63 | 1015.4 |
| 20260504185813 | 33 | 189 | 1.6 | 1.6 | 0.00 | 0.00 | 0.00 | 63 | 1015.3 |
| 20260504185310 | 33 | 68 | 8.0 | 9.7 | 0.00 | 0.00 | 0.00 | 62 | 1015.4 |
| 20260504184806 | 32 | 85 | 3.2 | 3.2 | 0.00 | 0.00 | 0.00 | 64 | 1015.4 |
| 20260504184302 | 32 | 59 | 3.2 | 3.2 | 0.00 | 0.00 | 0.00 | 66 | 1015.5 |
| 20260504183757 | 32 | 71 | 4.8 | 8.0 | 0.00 | 0.00 | 0.00 | 64 | 1015.5 |
| 20260504183254 | 32 | 81 | 8.0 | 11.3 | 0.00 | 0.00 | 0.00 | 66 | 1015.6 |
| 20260504182753 | 32 | 101 | 8.0 | 12.9 | 0.00 | 0.00 | 0.00 | 64 | 1015.8 |
| 20260504182249 | 32 | 105 | 6.4 | 9.7 | 0.00 | 0.00 | 0.00 | 65 | 1015.7 |
| 20260504181747 | 32 | 65 | 3.2 | 4.8 | 0.00 | 0.00 | 0.00 | 64 | 1015.9 |
| 20260504181244 | 33 | 94 | 11.3 | 14.5 | 0.00 | 0.00 | 0.00 | 60 | 1015.7 |
| 20260504180743 | 33 | 43 | 6.4 | 8.0 | 0.00 | 0.00 | 0.00 | 61 | 1016.1 |
| 20260504180242 | 34 | 21 | 6.4 | 9.7 | 0.00 | 0.00 | 0.00 | 58 | 1016.0 |
| 20260504175739 | 35 | 113 | 4.8 | 8.0 | 0.00 | 0.00 | 0.00 | 43 | 1016.1 |
| 20260504175235 | 35 | 267 | 0.0 | 0.0 | 0.00 | 0.00 | 0.00 | 42 | 1016.2 |
| 20260504174733 | 35 | 287 | 3.2 | 3.2 | 0.00 | 0.00 | 0.00 | 44 | 1016.1 |
| 20260504174231 | 34 | 232 | 6.4 | 8.0 | 0.00 | 0.00 | 0.00 | 45 | 1016.3 |
| 20260504173727 | 34 | 175 | 1.6 | 3.2 | 0.00 | 0.00 | 0.00 | 44 | 1016.2 |
| 20260504173224 | 34 | 97 | 14.5 | 17.7 | 0.00 | 0.00 | 0.00 | 45 | 1016.5 |
| 20260504172721 | 34 | 237 | 3.2 | 4.8 | 0.00 | 0.00 | 0.00 | 46 | 1016.1 |
| 20260504172217 | 35 | 214 | 8.0 | 12.9 | 0.00 | 0.00 | 0.00 | 45 | 1016.2 |
| 20260504171714 | 33 | 168 | 6.4 | 9.7 | 0.00 | 0.00 | 0.00 | 47 | 1016.7 |
| 20260504171211 | 33 | 93 | 6.4 | 9.7 | 0.00 | 0.00 | 0.00 | 48 | 1016.6 |
| 20260504170708 | 32 | 271 | 1.6 | 3.2 | 0.00 | 0.00 | 0.00 | 51 | 1016.3 |
| 20260504170206 | 33 | 83 | 1.6 | 3.2 | 0.00 | 0.00 | 0.00 | 51 | 1016.5 |
| 20260504160124 | 32 | 24 | 1.6 | 1.6 | 0.00 | 0.00 | 0.00 | 61 | 1017.1 |
| 20260504151051 | 32 | 145 | 3.2 | 8.0 | 0.00 | 0.00 | 0.00 | 58 | 1017.8 |
| 20260504150548 | 31 | 102 | 6.4 | 9.7 | 0.00 | 0.00 | 0.00 | 58 | 1018.0 |
| 20260504141014 | 31 | 102 | 9.7 | 14.5 | 0.00 | 0.00 | 0.00 | 63 | 1018.2 |
| 20260504140510 | 30 | 121 | 16.1 | 20.9 | 0.00 | 0.00 | 0.00 | 64 | 1018.0 |
| 20260504130435 | 29 | 131 | 6.4 | 9.7 | 0.00 | 0.00 | 0.00 | 71 | 1018.3 |
| 20260504110322 | 26 | 184 | 1.6 | 1.6 | 0.00 | 0.00 | 0.00 | 83 | 1018.6 |
| 20260504100240 | 22 | 181 | 0.0 | 0.0 | 0.00 | 0.00 | 0.00 | 94 | 1017.9 |
| 20260504081633 | 23 | 181 | 0.0 | 0.0 | 0.00 | 0.00 | 0.00 | 93 | 1017.3 |
| 20260504081129 | 23 | 194 | 0.0 | 0.0 | 0.00 | 0.00 | 0.00 | 93 | 1017.4 |
| 20260504080626 | 23 | 193 | 0.0 | 0.0 | 0.00 | 0.00 | 0.00 | 93 | 1017.3 |
| 20260504080122 | 23 | 145 | 0.0 | 0.0 | 0.00 | 0.00 | 0.00 | 93 | 1017.3 |
| 20260504050439 | 25 | 198 | 0.0 | 0.0 | 0.00 | 0.00 | 0.00 | 84 | 1017.9 |
| 20260504045936 | 25 | 150 | 0.0 | 0.0 | 0.00 | 0.00 | 0.00 | 84 | 1018.3 |
| 20260504045431 | 25 | 150 | 1.6 | 1.6 | 0.00 | 0.00 | 0.00 | 83 | 1018.5 |
| 20260504044928 | 25 | 173 | 0.0 | 0.0 | 0.00 | 0.00 | 0.00 | 83 | 1018.3 |
| 20260504044426 | 25 | 149 | 0.0 | 0.0 | 0.00 | 0.00 | 0.00 | 82 | 1018.6 |
| 20260504043923 | 25 | 190 | 0.0 | 0.0 | 0.00 | 0.00 | 0.00 | 82 | 1018.6 |
| 20260504043420 | 25 | 192 | 0.0 | 0.0 | 0.00 | 0.00 | 0.00 | 82 | 1018.7 |
| 20260504042917 | 25 | 171 | 0.0 | 0.0 | 0.00 | 0.00 | 0.00 | 82 | 1018.8 |
| 20260504042414 | 25 | 184 | 0.0 | 0.0 | 0.00 | 0.00 | 0.00 | 82 | 1018.9 |
| 20260504041910 | 25 | 172 | 0.0 | 0.0 | 0.00 | 0.00 | 0.00 | 82 | 1018.9 |
| 20260504041406 | 25 | 185 | 0.0 | 0.0 | 0.00 | 0.00 | 0.00 | 82 | 1018.9 |
| 20260504040902 | 25 | 187 | 0.0 | 0.0 | 0.00 | 0.00 | 0.00 | 83 | 1019.1 |
| 20260504040400 | 24 | 169 | 0.0 | 0.0 | 0.00 | 0.00 | 0.00 | 83 | 1019.2 |
| 20260504035856 | 25 | 166 | 0.0 | 0.0 | 0.00 | 0.00 | 0.00 | 83 | 1019.2 |
| 20260504035354 | 25 | 166 | 0.0 | 0.0 | 0.00 | 0.00 | 0.00 | 83 | 1019.3 |
| 20260504034850 | 25 | 184 | 0.0 | 0.0 | 0.00 | 0.00 | 0.00 | 83 | 1019.4 |
| 20260504034347 | 25 | 183 | 0.0 | 0.0 | 0.00 | 0.00 | 0.00 | 82 | 1019.4 |
| 20260504033844 | 25 | 184 | 0.0 | 0.0 | 0.00 | 0.00 | 0.00 | 83 | 1019.5 |
| 20260504033343 | 25 | 157 | 0.0 | 0.0 | 0.00 | 0.00 | 0.00 | 82 | 1019.5 |
| 20260504032839 | 25 | 171 | 0.0 | 0.0 | 0.00 | 0.00 | 0.00 | 82 | 1019.3 |
| 20260504032336 | 25 | 159 | 0.0 | 0.0 | 0.00 | 0.00 | 0.00 | 83 | 1019.2 |
| 20260504031833 | 25 | 174 | 0.0 | 0.0 | 0.00 | 0.00 | 0.00 | 83 | 1019.4 |
| 20260504031330 | 25 | 179 | 0.0 | 0.0 | 0.00 | 0.00 | 0.00 | 83 | 1019.4 |
| 20260504030826 | 24 | 183 | 0.0 | 0.0 | 0.00 | 0.00 | 0.00 | 84 | 1019.4 |
| 20260504030324 | 24 | 150 | 0.0 | 0.0 | 0.00 | 0.00 | 0.00 | 84 | 1019.2 |
| 20260504025820 | 24 | 182 | 0.0 | 0.0 | 0.00 | 0.00 | 0.00 | 84 | 1019.1 |
| 20260504025317 | 25 | 176 | 0.0 | 0.0 | 0.00 | 0.00 | 0.00 | 83 | 1019.0 |
| 20260504024813 | 25 | 145 | 0.0 | 0.0 | 0.00 | 0.00 | 0.00 | 83 | 1019.0 |
| 20260504024310 | 25 | 131 | 0.0 | 0.0 | 0.00 | 0.00 | 0.00 | 82 | 1019.1 |
| 20260504023807 | 25 | 162 | 0.0 | 0.0 | 0.00 | 0.00 | 0.00 | 82 | 1019.2 |
| 20260504023303 | 25 | 157 | 0.0 | 0.0 | 0.00 | 0.00 | 0.00 | 81 | 1018.9 |
| 20260504022759 | 25 | 183 | 0.0 | 0.0 | 0.00 | 0.00 | 0.00 | 80 | 1018.7 |
| 20260504022255 | 25 | 183 | 0.0 | 0.0 | 0.00 | 0.00 | 0.00 | 81 | 1018.8 |
| 20260504021752 | 25 | 172 | 0.0 | 0.0 | 0.00 | 0.00 | 0.00 | 81 | 1018.8 |
| 20260504021250 | 25 | 166 | 1.6 | 3.2 | 0.00 | 0.00 | 0.00 | 80 | 1018.2 |
| 20260504020747 | 26 | 185 | 0.0 | 0.0 | 0.00 | 0.00 | 0.00 | 79 | 1018.7 |
| 20260504020243 | 26 | 129 | 1.6 | 3.2 | 0.00 | 0.00 | 0.00 | 78 | 1018.3 |
| 20260504015739 | 26 | 180 | 0.0 | 0.0 | 0.00 | 0.00 | 0.00 | 78 | 1018.6 |
| 20260504015236 | 26 | 163 | 0.0 | 1.6 | 0.00 | 0.00 | 0.00 | 77 | 1018.5 |
| 20260504014732 | 26 | 157 | 1.6 | 3.2 | 0.00 | 0.00 | 0.00 | 77 | 1018.6 |
| 20260504014228 | 26 | 174 | 1.6 | 1.6 | 0.00 | 0.00 | 0.00 | 77 | 1018.3 |
| 20260504013726 | 26 | 164 | 0.0 | 1.6 | 0.00 | 0.00 | 0.00 | 77 | 1018.3 |
| 20260504013224 | 26 | 151 | 1.6 | 3.2 | 0.00 | 0.00 | 0.00 | 76 | 1018.0 |
| 20260504012720 | 26 | 95 | 4.8 | 4.8 | 0.00 | 0.00 | 0.00 | 76 | 1018.2 |
| 20260504012218 | 26 | 153 | 4.8 | 4.8 | 0.00 | 0.00 | 0.00 | 77 | 1018.1 |
| 20260504011715 | 26 | 187 | 3.2 | 3.2 | 0.00 | 0.00 | 0.00 | 77 | 1018.1 |
| 20260504011211 | 26 | 170 | 4.8 | 4.8 | 0.00 | 0.00 | 0.00 | 77 | 1018.1 |
| 20260504010708 | 26 | 156 | 3.2 | 4.8 | 0.00 | 0.00 | 0.00 | 76 | 1018.0 |
| 20260504010203 | 26 | 183 | 0.0 | 1.6 | 0.00 | 0.00 | 0.00 | 76 | 1018.1 |
| 20260504005700 | 26 | 173 | 0.0 | 1.6 | 0.00 | 0.00 | 0.00 | 76 | 1018.0 |
| 20260504005157 | 26 | 182 | 1.6 | 1.6 | 0.00 | 0.00 | 0.00 | 76 | 1018.1 |
| 20260504004655 | 26 | 153 | 1.6 | 3.2 | 0.00 | 0.00 | 0.00 | 75 | 1018.2 |
| 20260504004152 | 27 | 167 | 0.0 | 0.0 | 0.00 | 0.00 | 0.00 | 75 | 1018.0 |
| 20260504003648 | 27 | 170 | 1.6 | 1.6 | 0.00 | 0.00 | 0.00 | 75 | 1017.9 |
| 20260504003145 | 27 | 169 | 1.6 | 3.2 | 0.00 | 0.00 | 0.00 | 75 | 1018.0 |
| 20260504002641 | 27 | 171 | 3.2 | 3.2 | 0.00 | 0.00 | 0.00 | 75 | 1018.1 |
| 20260504002139 | 27 | 195 | 0.0 | 0.0 | 0.00 | 0.00 | 0.00 | 76 | 1018.1 |
| 20260504001637 | 27 | 202 | 1.6 | 1.6 | 0.00 | 0.00 | 0.00 | 76 | 1017.7 |
| 20260504001132 | 26 | 181 | 1.6 | 1.6 | 0.00 | 0.00 | 0.00 | 78 | 1017.5 |
| 20260504000630 | 26 | 205 | 1.6 | 1.6 | 0.00 | 0.00 | 0.00 | 80 | 1017.6 |
| 20260504000127 | 26 | 186 | 0.0 | 0.0 | 0.00 | 0.00 | 0.00 | 83 | 1017.6 |
| 20260503235625 | 27 | 158 | 0.0 | 0.0 | 0.00 | 0.00 | 0.00 | 83 | 1017.5 |
| 20260503235122 | 27 | 171 | 0.0 | 0.0 | 0.00 | 0.00 | 0.00 | 83 | 1017.3 |
| 20260503234620 | 27 | 158 | 0.0 | 0.0 | 0.00 | 0.00 | 0.00 | 83 | 1017.2 |
| 20260503234118 | 27 | 168 | 1.6 | 1.6 | 0.00 | 0.00 | 0.00 | 82 | 1017.3 |
| 20260503233615 | 27 | 182 | 0.0 | 0.0 | 0.00 | 0.00 | 0.00 | 81 | 1017.2 |
| 20260503233110 | 27 | 143 | 0.0 | 0.0 | 0.00 | 0.00 | 0.00 | 81 | 1017.3 |
| 20260503232607 | 27 | 167 | 0.0 | 0.0 | 0.00 | 0.00 | 0.00 | 81 | 1017.2 |
| 20260503232105 | 27 | 150 | 0.0 | 0.0 | 0.00 | 0.00 | 0.00 | 81 | 1017.2 |
| 20260503231603 | 27 | 138 | 1.6 | 1.6 | 0.00 | 0.00 | 0.00 | 81 | 1017.1 |
| 20260503231059 | 27 | 180 | 0.0 | 1.6 | 0.00 | 0.00 | 0.00 | 81 | 1017.0 |
| 20260503230555 | 27 | 181 | 1.6 | 3.2 | 0.00 | 0.00 | 0.00 | 82 | 1016.9 |
| 20260503230053 | 27 | 151 | 1.6 | 3.2 | 0.00 | 0.00 | 0.00 | 81 | 1016.7 |
| 20260503225550 | 28 | 146 | 1.6 | 1.6 | 0.00 | 0.00 | 0.00 | 81 | 1017.1 |
| 20260503225045 | 28 | 200 | 0.0 | 1.6 | 0.00 | 0.00 | 0.00 | 81 | 1016.8 |
| 20260503224543 | 28 | 103 | 1.6 | 3.2 | 0.00 | 0.00 | 0.00 | 80 | 1016.9 |
| 20260503224040 | 28 | 120 | 1.6 | 1.6 | 0.00 | 0.00 | 0.00 | 80 | 1016.6 |
| 20260503223538 | 28 | 87 | 3.2 | 4.8 | 0.00 | 0.00 | 0.00 | 79 | 1016.8 |
| 20260503223033 | 28 | 104 | 4.8 | 4.8 | 0.00 | 0.00 | 0.00 | 79 | 1016.7 |
| 20260503222531 | 28 | 117 | 1.6 | 1.6 | 0.00 | 0.00 | 0.00 | 79 | 1016.7 |
| 20260503222029 | 28 | 168 | 4.8 | 8.0 | 0.00 | 0.00 | 0.00 | 79 | 1016.5 |
| 20260503221528 | 28 | 132 | 4.8 | 4.8 | 0.00 | 0.00 | 0.00 | 79 | 1016.5 |
| 20260503221025 | 28 | 143 | 4.8 | 8.0 | 0.00 | 0.00 | 0.00 | 78 | 1016.7 |
| 20260503220520 | 28 | 233 | 4.8 | 8.0 | 0.00 | 0.00 | 0.00 | 77 | 1016.4 |
| 20260503220017 | 28 | 157 | 6.4 | 8.0 | 0.00 | 0.00 | 0.00 | 77 | 1016.4 |
| 20260503215515 | 28 | 86 | 12.9 | 20.9 | 0.00 | 0.00 | 0.00 | 76 | 1016.4 |
| 20260503215012 | 29 | 71 | 11.3 | 14.5 | 0.00 | 0.00 | 0.00 | 75 | 1016.2 |
| 20260503214510 | 29 | 190 | 6.4 | 8.0 | 0.00 | 0.00 | 0.00 | 74 | 1016.5 |